Weather History for KAPY - March, 2013

Change the Weather History Date:

Monday, March 4, 2013

  Actual Average (KLRD) Record (KLRD)
Temperature  
Mean Temperature 74 °F 65 °F  
Max Temperature 95 °F 76 °F 96 °F (1976)
Min Temperature 53 °F 54 °F 26 °F (1922)
Degree Days  
Heating Degree Days 0 4  
Month to date heating degree days 16  
Since 1 July heating degree days 860  
Cooling Degree Days 9 4  
Month to date cooling degree days 15  
Year to date cooling degree days 100  
Growing Degree Days 24 (Base 50)    
Moisture  
Dew Point 39 °F    
Average Humidity 41    
Maximum Humidity 82    
Minimum Humidity 5    
Precipitation  
Precipitation 0.00 in 0.04 in 0.55 in (1968)
Month to date precipitation 0.17  
Year to date precipitation 2.01  
Sea Level Pressure  
Sea Level Pressure 29.83 in    
Wind  
Wind Speed 9 mph (SSE)    
Max Wind Speed 14 mph    
Max Gust Speed 21 mph    
Visibility 10 miles    
Events      
T = Trace of Precipitation, MM = Missing Value Source: NWS Daily Summary

Daily Weather History Graph

Daily Weather History Graph

Search for Another Location

Airport or City:

Trip Planner

Search our weather history database for the weather conditions in past years. The results will help you decide how hot, cold, wet, or windy it might be!

Date:

Astronomy

Mar. 04, 2013 Rise Set
Actual Time 6:57 AM CST 6:39 PM CST
Civil Twilight 6:34 AM CST 7:03 PM CST
Nautical Twilight 6:07 AM CST 7:30 PM CST
Astronomical Twilight 5:40 AM CST 7:57 PM CST
Moon 12:47 AM CST (3/4) 11:45 AM CST (3/4)
Length of Visible Light 12h 28m
Length of Day
11h 42m
Waning Gibbous, 52% of the Moon is Illuminated
Mar 4
Waning Gibbous
Mar 4
Last Quarter
Mar 11
New
Mar 19
First Quarter
Mar 27
Full

Hourly Weather History & Observations

Time (CST) Temp. Dew Point Humidity Pressure Visibility Wind Dir Wind Speed Gust Speed Precip Events Conditions
12:35 AM 61.0 °F 47.3 °F 61% 29.97 in 10.0 mi SSE 11.5 mph - N/A   Clear
12:55 AM 60.8 °F 47.5 °F 62% 29.97 in 10.0 mi SSE 10.4 mph 16.1 mph N/A   Clear
1:15 AM 60.3 °F 47.8 °F 64% 29.95 in 10.0 mi SSE 9.2 mph - N/A   Clear
1:55 AM 59.4 °F 48.2 °F 67% 29.94 in 10.0 mi SSE 9.2 mph - N/A   Clear
2:15 AM 59.2 °F 48.4 °F 67% 29.93 in 10.0 mi SSE 8.1 mph - N/A   Clear
2:35 AM 58.5 °F 48.4 °F 69% 29.92 in 10.0 mi SSE 8.1 mph - N/A   Clear
2:55 AM 58.3 °F 48.6 °F 70% 29.91 in 10.0 mi SSE 6.9 mph - N/A   Clear
3:15 AM 57.6 °F 48.6 °F 72% 29.91 in 10.0 mi SSE 6.9 mph - N/A   Clear
3:35 AM 57.4 °F 48.7 °F 73% 29.90 in 10.0 mi SSE 5.8 mph - N/A   Clear
3:55 AM 57.0 °F 48.9 °F 74% 29.89 in 10.0 mi SSE 8.1 mph - N/A   Clear
4:15 AM 57.2 °F 49.1 °F 74% 29.88 in 10.0 mi SSE 8.1 mph - N/A   Clear
4:35 AM 56.7 °F 48.9 °F 75% 29.88 in 10.0 mi SSE 9.2 mph - N/A   Clear
4:55 AM 56.5 °F 49.1 °F 76% 29.87 in 10.0 mi SE 6.9 mph - N/A   Clear
5:15 AM 55.8 °F 48.6 °F 77% 29.88 in 10.0 mi SSE 5.8 mph - N/A   Clear
5:35 AM 54.9 °F 48.4 °F 79% 29.88 in 10.0 mi SE 4.6 mph - N/A   Clear
6:15 AM 54.5 °F 48.2 °F 79% 29.89 in 10.0 mi SE 4.6 mph - N/A   Clear
6:35 AM 53.8 °F 48.2 °F 81% 29.89 in 10.0 mi SE 5.8 mph - N/A   Clear
6:55 AM 53.6 °F 47.8 °F 81% 29.89 in 10.0 mi SE 5.8 mph - N/A   Clear
7:15 AM 53.2 °F 47.8 °F 82% 29.89 in 10.0 mi SE 4.6 mph - N/A   Clear
7:35 AM 54.3 °F 48.4 °F 80% 29.89 in 10.0 mi SE 5.8 mph - N/A   Clear
7:55 AM 57.2 °F 48.7 °F 73% 29.90 in 10.0 mi SSE 9.2 mph - N/A   Clear
8:15 AM 59.2 °F 49.1 °F 69% 29.89 in 10.0 mi SSE 12.7 mph - N/A   Clear
8:35 AM 61.3 °F 48.9 °F 64% 29.90 in 10.0 mi SSE 9.2 mph 16.1 mph N/A   Clear
8:55 AM 63.5 °F 48.6 °F 58% 29.90 in 10.0 mi SE 13.8 mph 18.4 mph N/A   Clear
9:15 AM 67.1 °F 46.9 °F 48% 29.90 in 10.0 mi SSE 12.7 mph 19.6 mph N/A   Clear
9:35 AM 70.0 °F 46.9 °F 44% 29.89 in 10.0 mi SE 10.4 mph 20.7 mph N/A   Clear
9:55 AM 71.4 °F 44.4 °F 38% 29.90 in 10.0 mi SSE 11.5 mph 19.6 mph N/A   Clear
10:15 AM 72.9 °F 43.3 °F 35% 29.90 in 10.0 mi SSE 11.5 mph 20.7 mph N/A   Clear
10:35 AM 75.0 °F 41.7 °F 30% 29.90 in 10.0 mi South 12.7 mph 17.3 mph N/A   Clear
10:55 AM 75.7 °F 41.9 °F 30% 29.89 in 10.0 mi SE 13.8 mph 17.3 mph N/A   Clear
11:15 AM 77.5 °F 42.1 °F 28% 29.87 in 10.0 mi SSE 10.4 mph 18.4 mph N/A   Clear
11:35 AM 79.2 °F 41.2 °F 26% 29.87 in 10.0 mi SSE 12.7 mph - N/A   Clear
11:55 AM 80.2 °F 40.6 °F 24% 29.85 in 10.0 mi SSE 12.7 mph 19.6 mph N/A   Clear
12:15 PM 82.0 °F 39.6 °F 22% 29.85 in 10.0 mi SSE 13.8 mph 19.6 mph N/A   Clear
12:55 PM 85.6 °F 36.0 °F 17% 29.81 in 10.0 mi South 11.5 mph 17.3 mph N/A   Clear
1:15 PM 87.1 °F 36.1 °F 16% 29.80 in 10.0 mi South 9.2 mph 16.1 mph N/A   Clear
1:35 PM 88.7 °F 33.8 °F 14% 29.78 in 10.0 mi SE 10.4 mph 16.1 mph N/A   Clear
1:55 PM 90.0 °F 32.0 °F 13% 29.77 in 10.0 mi South 9.2 mph - N/A   Clear
2:15 PM 91.8 °F 30.7 °F 11% 29.76 in 10.0 mi SSE 10.4 mph 16.1 mph N/A   Clear
2:35 PM 93.0 °F 28.8 °F 10% 29.75 in 10.0 mi SSE 8.1 mph - N/A   Clear
2:55 PM 93.4 °F 27.0 °F 9% 29.74 in 10.0 mi ESE 9.2 mph - N/A   Clear
3:15 PM 94.3 °F 23.4 °F 8% 29.73 in 10.0 mi SE 6.9 mph - N/A   Clear
3:35 PM 95.4 °F 26.8 °F 9% 29.73 in 10.0 mi South 8.1 mph - N/A   Clear
3:55 PM 95.2 °F 25.3 °F 8% 29.73 in 10.0 mi SSW 8.1 mph - N/A   Clear
4:15 PM 95.4 °F 19.8 °F 6% 29.72 in 10.0 mi SSW 6.9 mph - N/A   Clear
4:35 PM 94.6 °F 18.1 °F 6% 29.72 in 10.0 mi SSW 5.8 mph - N/A   Clear
4:55 PM 95.0 °F 17.2 °F 6% 29.72 in 10.0 mi SSE 5.8 mph - N/A   Clear
5:15 PM 94.8 °F 16.2 °F 6% 29.71 in 10.0 mi SSE 5.8 mph - N/A   Clear
5:35 PM 94.6 °F 11.8 °F 5% 29.71 in 10.0 mi SE 4.6 mph - N/A   Clear
5:55 PM 93.4 °F 14.9 °F 6% 29.71 in 10.0 mi SSE 5.8 mph - N/A   Clear
6:15 PM 91.6 °F 12.0 °F 5% 29.71 in 10.0 mi SSE 4.6 mph - N/A   Clear
6:35 PM 88.9 °F 10.8 °F 5% 29.72 in 10.0 mi SE 4.6 mph - N/A   Clear
6:55 PM 86.2 °F 12.6 °F 6% 29.72 in 10.0 mi SE 3.5 mph - N/A   Clear
7:15 PM 82.4 °F 13.5 °F 8% 29.72 in 10.0 mi SSE 4.6 mph - N/A   Clear
7:35 PM 81.3 °F 16.2 °F 9% 29.73 in 10.0 mi SE 4.6 mph - N/A   Clear
7:55 PM 81.1 °F 22.5 °F 11% 29.74 in 10.0 mi SE 8.1 mph - N/A   Clear
8:15 PM 81.1 °F 38.1 °F 21% 29.75 in 10.0 mi SE 9.2 mph - N/A   Clear
8:35 PM 80.2 °F 45.5 °F 29% 29.75 in 10.0 mi ESE 10.4 mph 18.4 mph N/A   Clear
8:55 PM 78.4 °F 48.2 °F 34% 29.77 in 7.0 mi SE 11.5 mph - N/A   Clear
9:15 PM 77.0 °F 49.8 °F 38% 29.78 in 10.0 mi SE 10.4 mph 16.1 mph N/A   Clear
9:35 PM 75.7 °F 50.4 °F 41% 29.79 in 10.0 mi SE 9.2 mph 17.3 mph N/A   Clear
9:55 PM 74.3 °F 52.0 °F 46% 29.79 in 10.0 mi SE 11.5 mph - N/A   Clear
10:15 PM 73.0 °F 52.9 °F 49% 29.80 in 10.0 mi SE 10.4 mph 17.3 mph N/A   Clear
10:35 PM 71.8 °F 53.6 °F 53% 29.81 in 10.0 mi SE 9.2 mph - N/A   Clear
10:55 PM 70.7 °F 53.8 °F 55% 29.80 in 10.0 mi SE 8.1 mph - N/A   Clear
11:15 PM 69.6 °F 54.1 °F 58% 29.79 in 10.0 mi SE 8.1 mph - N/A   Clear
11:35 PM 68.5 °F 54.5 °F 61% 29.79 in 10.0 mi SE 8.1 mph - N/A   Clear
11:55 PM 67.5 °F 54.5 °F 63% 29.78 in 10.0 mi SE 6.9 mph - N/A   Clear